Location: *
(49.1466°N, 1.6216°E)
Time: 18:03:22
(UTC+00:00)

Cosmos 2322 Rocket - Pass Details

Date: 25 September 2023
Orbit: 830 x 852 km, 71.0° (Epoch: 10 December)

Event Time Altitude Azimuth Distance (km) Brightness Sun altitude
Rises 18:53:56 0° 220° (SW) 3,364 5.7 -11.9°
Reaches altitude 10° 18:56:24 10° 224° (SW) 2,434 5.0 -12.3°
Maximum altitude 19:01:54 58° 303° (WNW) 967 2.9 -13.2°
Drops below altitude 10° 19:07:26 10° 23° (NNE) 2,452 4.5 -14.0°
Sets 19:09:56 0° 27° (NNE) 3,391 5.2 -14.4°
